Weather History for KCLK - May, 2013

Change the Weather History Date:

Tuesday, May 21, 2013

  Actual Average (KCSM) Record (KCSM)
Temperature  
Mean Temperature 64 °F -  
Max Temperature 73 °F 80 °F 99 °F (1998)
Min Temperature 55 °F 57 °F 48 °F (2001)
Degree Days  
Heating Degree Days 1    
Growing Degree Days 14 (Base 50)    
Moisture  
Dew Point 45 °F    
Average Humidity 52    
Maximum Humidity 82    
Minimum Humidity 31    
Precipitation  
Precipitation 0.06 in - - ()
Sea Level Pressure  
Sea Level Pressure 29.85 in    
Wind  
Wind Speed 10 mph (North)    
Max Wind Speed 20 mph    
Max Gust Speed 43 mph    
Visibility 10 miles    
Events Rain    
Averages and records for this station are not official NWS values.
T = Trace of Precipitation, MM = Missing Value Source: NWS Daily Summary

Daily Weather History Graph

Daily Weather History Graph

Search for Another Location

Airport or City:

Trip Planner

Search our weather history database for the weather conditions in past years. The results will help you decide how hot, cold, wet, or windy it might be!

Date:

Astronomy

May. 21, 2013 Rise Set
Actual Time 6:26 AM CDT 8:38 PM CDT
Civil Twilight 5:57 AM CDT 9:07 PM CDT
Nautical Twilight 5:22 AM CDT 9:42 PM CDT
Astronomical Twilight 4:44 AM CDT 10:20 PM CDT
Moon 5:00 PM CDT (5/21) 3:47 AM CDT (5/21)
Length of Visible Light 15h 09m
Length of Day
14h 11m
Waxing Gibbous, 84% of the Moon is Illuminated
May 21
Waxing Gibbous
May 24
Full
May 31
Last Quarter
Jun 8
New
Jun 16
First Quarter

Hourly Weather History & Observations

Time (CDT) Temp. Dew Point Humidity Pressure Visibility Wind Dir Wind Speed Gust Speed Precip Events Conditions
12:15 AM 62.6 °F 53.6 °F 72% 29.81 in 10.0 mi East 6.9 mph - N/A   Clear
12:35 AM 62.6 °F 53.6 °F 72% 29.81 in 10.0 mi Calm Calm - N/A   Clear
12:55 AM 59.0 °F 53.6 °F 82% 29.81 in 10.0 mi North 5.8 mph - N/A   Clear
1:15 AM 59.0 °F 53.6 °F 82% 29.82 in 10.0 mi North 8.1 mph - N/A   Clear
1:35 AM 59.0 °F 53.6 °F 82% 29.82 in 10.0 mi North 8.1 mph - N/A   Clear
1:55 AM 60.8 °F 53.6 °F 77% 29.82 in 10.0 mi North 10.4 mph - N/A   Clear
2:15 AM 62.6 °F 53.6 °F 72% 29.81 in 10.0 mi North 11.5 mph - N/A   Scattered Clouds
2:35 AM 62.6 °F 51.8 °F 68% 29.81 in 10.0 mi North 17.3 mph 21.9 mph N/A   Scattered Clouds
2:55 AM 64.4 °F 44.6 °F 49% 29.83 in 10.0 mi North 19.6 mph 24.2 mph N/A   Scattered Clouds
3:15 AM 64.4 °F 42.8 °F 45% 29.83 in 10.0 mi North 15.0 mph 23.0 mph N/A   Scattered Clouds
3:35 AM 62.6 °F 41.0 °F 45% 29.82 in 10.0 mi North 18.4 mph - N/A   Clear
3:55 AM 62.6 °F 41.0 °F 45% 29.84 in 10.0 mi North 15.0 mph 21.9 mph N/A   Clear
4:15 AM 60.8 °F 41.0 °F 48% 29.83 in 10.0 mi North 12.7 mph - N/A   Clear
4:35 AM 60.8 °F 41.0 °F 48% 29.82 in 10.0 mi North 16.1 mph - N/A   Clear
4:55 AM 60.8 °F 41.0 °F 48% 29.82 in 10.0 mi North 16.1 mph 23.0 mph N/A   Clear
5:15 AM 60.8 °F 41.0 °F 48% 29.83 in 10.0 mi North 18.4 mph 23.0 mph N/A   Clear
5:35 AM 59.0 °F 41.0 °F 51% 29.83 in 10.0 mi North 16.1 mph 24.2 mph N/A   Clear
5:55 AM 59.0 °F 41.0 °F 51% 29.84 in 10.0 mi North 12.7 mph - N/A   Clear
6:15 AM 59.0 °F 41.0 °F 51% 29.85 in 10.0 mi North 12.7 mph 18.4 mph N/A   Clear
6:35 AM 59.0 °F 41.0 °F 51% 29.86 in 10.0 mi North 10.4 mph 18.4 mph N/A   Scattered Clouds
6:55 AM 59.0 °F 41.0 °F 51% 29.86 in 10.0 mi North 15.0 mph 20.7 mph N/A   Scattered Clouds
7:15 AM 59.0 °F 41.0 °F 51% 29.86 in 10.0 mi North 11.5 mph 18.4 mph N/A   Clear
7:35 AM 60.8 °F 41.0 °F 48% 29.84 in 10.0 mi NNE 13.8 mph 18.4 mph N/A   Clear
7:55 AM 60.8 °F 41.0 °F 48% 29.84 in 10.0 mi North 16.1 mph 21.9 mph N/A   Clear
8:15 AM 62.6 °F 41.0 °F 45% 29.85 in 10.0 mi North 13.8 mph 23.0 mph N/A   Clear
8:35 AM 62.6 °F 41.0 °F 45% 29.85 in 10.0 mi North 18.4 mph 25.3 mph N/A   Clear
8:55 AM 62.6 °F 41.0 °F 45% 29.86 in 10.0 mi North 18.4 mph 21.9 mph N/A   Clear
9:15 AM 62.6 °F 39.2 °F 42% 29.86 in 10.0 mi North 15.0 mph - N/A   Clear
9:35 AM 62.6 °F 39.2 °F 42% 29.88 in 10.0 mi NNE 16.1 mph 21.9 mph N/A   Scattered Clouds
9:55 AM 62.6 °F 41.0 °F 45% 29.88 in 10.0 mi NNE 15.0 mph - N/A   Clear
10:15 AM 68.0 °F 41.0 °F 37% 29.86 in 10.0 mi North 16.1 mph 19.6 mph N/A   Clear
10:35 AM 60.8 °F 44.6 °F 55% 29.86 in 10.0 mi NNE 18.4 mph - 0.01 in Rain Light Rain
10:55 AM 59.0 °F 44.6 °F 59% 29.81 in 10.0 mi NNE 15.0 mph 19.6 mph 0.03 in Rain Light Rain
11:15 AM 57.2 °F 46.4 °F 67% 29.84 in 10.0 mi NNE 10.4 mph - N/A Rain Light Rain
11:35 AM 57.2 °F 46.4 °F 67% 29.96 in 7.0 mi WNW 17.3 mph 42.6 mph 0.03 in Rain Rain
11:55 AM 55.4 °F 48.2 °F 77% 29.96 in 10.0 mi NW 8.1 mph - 0.03 in   Scattered Clouds
12:15 PM 57.2 °F 46.4 °F 67% 29.96 in 10.0 mi NNW 4.6 mph - N/A   Clear
12:35 PM 57.2 °F 48.2 °F 72% 29.96 in 10.0 mi NW 4.6 mph - N/A   Clear
12:55 PM 59.0 °F 50.0 °F 72% 29.93 in 10.0 mi North 9.2 mph - N/A   Clear
1:15 PM 60.8 °F 50.0 °F 68% 29.92 in 10.0 mi North 10.4 mph - N/A   Clear
1:35 PM 62.6 °F 50.0 °F 63% 29.90 in 10.0 mi North 11.5 mph - N/A   Clear
1:55 PM 66.2 °F 48.2 °F 52% 29.88 in 10.0 mi NNE 9.2 mph - N/A   Clear
2:15 PM 66.2 °F 46.4 °F 49% 29.88 in 10.0 mi NNE 5.8 mph - N/A   Clear
2:35 PM 68.0 °F 46.4 °F 46% 29.85 in 10.0 mi North 10.4 mph - N/A   Clear
2:55 PM 69.8 °F 44.6 °F 40% 29.85 in 10.0 mi North 11.5 mph 17.3 mph N/A   Clear
3:15 PM 69.8 °F 44.6 °F 40% 29.85 in 10.0 mi NNW 9.2 mph - N/A   Clear
3:35 PM 71.6 °F 42.8 °F 35% 29.85 in 10.0 mi North 11.5 mph 16.1 mph N/A   Clear
3:55 PM 71.6 °F 42.8 °F 35% 29.84 in 10.0 mi North 8.1 mph 17.3 mph N/A   Clear
4:15 PM 71.6 °F 42.8 °F 35% 29.83 in 10.0 mi NW 12.7 mph 18.4 mph N/A   Clear
4:35 PM 71.6 °F 42.8 °F 35% 29.82 in 10.0 mi NNW 10.4 mph 18.4 mph N/A   Clear
4:55 PM 71.6 °F 42.8 °F 35% 29.82 in 10.0 mi WNW 4.6 mph - N/A   Clear
5:15 PM 73.4 °F 42.8 °F 33% 29.80 in 10.0 mi NNW 11.5 mph - N/A   Clear
5:35 PM 73.4 °F 41.0 °F 31% 29.80 in 10.0 mi North 5.8 mph - N/A   Clear
5:55 PM 73.4 °F 41.0 °F 31% 29.80 in 10.0 mi NNW 10.4 mph - N/A   Clear
6:15 PM 73.4 °F 41.0 °F 31% 29.80 in 10.0 mi NNW 9.2 mph - N/A   Clear
6:35 PM 71.6 °F 42.8 °F 35% 29.80 in 10.0 mi North 4.6 mph - N/A   Clear
6:55 PM 71.6 °F 42.8 °F 35% 29.80 in 10.0 mi North 4.6 mph - N/A   Clear
7:15 PM 73.4 °F 41.0 °F 31% 29.80 in 10.0 mi North 3.5 mph - N/A   Clear
7:35 PM 71.6 °F 41.0 °F 33% 29.81 in 10.0 mi Calm Calm - N/A   Clear
7:55 PM 71.6 °F 41.0 °F 33% 29.81 in 10.0 mi Calm Calm - N/A   Clear
8:15 PM 69.8 °F 44.6 °F 40% 29.82 in 10.0 mi Calm Calm - N/A   Clear
8:35 PM 69.8 °F 42.8 °F 38% 29.82 in 10.0 mi Calm Calm - N/A   Clear
8:55 PM 68.0 °F 44.6 °F 43% 29.83 in 10.0 mi SSE 4.6 mph - N/A   Clear
9:15 PM 64.4 °F 46.4 °F 52% 29.84 in 10.0 mi SSE 5.8 mph - N/A   Clear
9:35 PM 64.4 °F 48.2 °F 56% 29.84 in 10.0 mi SSE 6.9 mph - N/A   Clear
9:55 PM 60.8 °F 50.0 °F 68% 29.85 in 10.0 mi South 6.9 mph - N/A   Clear
10:15 PM 60.8 °F 50.0 °F 68% 29.85 in 10.0 mi SSE 8.1 mph - N/A   Clear
10:35 PM 60.8 °F 50.0 °F 68% 29.85 in 10.0 mi South 8.1 mph - N/A   Clear
10:55 PM 60.8 °F 50.0 °F 68% 29.86 in 10.0 mi SSE 8.1 mph - N/A   Clear
11:15 PM 59.0 °F 50.0 °F 72% 29.86 in 10.0 mi SSE 9.2 mph - N/A   Clear
11:35 PM 59.0 °F 50.0 °F 72% 29.86 in 10.0 mi SSE 8.1 mph - N/A   Clear
11:55 PM 59.0 °F 50.0 °F 72% 29.85 in 10.0 mi SSE 9.2 mph - N/A   Clear